Terminal Aerodrome Forecast
Issued by NWS

Home | Current Version | Previous Version | Text Only | Print | Product List | Glossary On
Versions: 1 2 3 4 5 6 7 8 9 10 11 12 13 14 15 16 17 18 19 20 21 22 23 24 25 26 27 28 29 30
000
FTUS43 KDLH 160500
TAFHIB
TAF
KHIB 160528Z 1606/1706 VRB02KT 5SM BR SCT060
      TEMPO 1607/1611 3SM BR
     FM161600 26009G16KT P6SM BKN060
     FM170000 24003KT P6SM SCT060=

USA.gov is the U.S. government's official web portal to all federal, state and local government web resources and services.